Regional Weather Roundup
Issued by NWS Little Rock, AR

Home | Current Version | Previous Version | Text Only | Print | Product List | Glossary On
Versions: 1 2 3 4 5 6 7 8 9 10 11 12 13 14 15 16 17 18 19 20 21 22 23 24 25 26 27
000
ASUS44 KLZK 252105
RWRLZK

WEATHER ROUNDUP FOR ARKANSAS
NATIONAL WEATHER SERVICE LITTLE ROCK AR
400 PM CDT WED MAY 25 2016

NOTE: "FAIR" INDICATES FEW OR NO CLOUDS BELOW 12,000 FEET WITH NO
SIGNIFICANT WEATHER AND/OR OBSTRUCTIONS TO VISIBILITY.

ARZ001-003-010-029-252200-
NORTHWEST ARKANSAS

CITY           SKY/WX    TMP DP  RH WIND       PRES   REMARKS
FAYETTEVILLE   SUNNY     78  70  76 S20G26    29.97F
FORT SMITH     MOSUNNY   83  71  67 SE8       29.94F HX  87
HARRISON       MOSUNNY   78  66  66 S13       30.00F
BENTONVILLE    MOSUNNY   81  66  61 S14G26    29.97F
ROGERS         MOSUNNY   82  69  64 S18       29.97F HX  85
SILOAM SPGS    PTSUNNY   81  64  57 S16       29.97S
HIGHFILL       MOSUNNY   80  70  71 S16G25    29.96S
$$

ARZ004-005-016-252200-
NORTH CENTRAL ARKANSAS

CITY           SKY/WX    TMP DP  RH WIND       PRES   REMARKS
BATESVILLE     CLOUDY    75  66  73 S9        30.03R
FLIPPIN        CLOUDY   N/A N/A N/A SE5       29.97S
MTN HOME       PTSUNNY   74  65  73 S8        29.99F
$$

ARZ040-041-252200-
WEST CENTRAL ARKANSAS

CITY           SKY/WX    TMP DP  RH WIND       PRES   REMARKS
MENA           MOSUNNY   88  77  70 S7G17     29.99F HX 100
MOUNT IDA      MOSUNNY   85  74  69 CALM      29.96F HX  92
$$

ARZ009-017-025-026-028-252200-
NORTHEAST ARKANSAS

CITY           SKY/WX    TMP DP  RH WIND       PRES   REMARKS
CORNING          N/A     73  70  88 W7        29.98R
JONESBORO      CLOUDY    69  66  90 S9        30.01R
NEWPORT        CLOUDY    69  67  93 S10       30.02R
WALNUT RIDGE   CLOUDY    72  64  78 SW15      29.99R
BLYTHEVILLE    CLOUDY    70  67  90 S14       29.98F
NW BLYTHEVILLE CLOUDY    70  66  88 VRB5      29.96F
$$

ARZ022-023-033-042-044-252200-
CENTRAL ARKANSAS

CITY           SKY/WX    TMP DP  RH WIND       PRES   REMARKS
LITTLE ROCK    PTSUNNY   83  73  72 E9        30.00F HX  89
N LITTLE ROCK    N/A     79  73  80 SE8       29.99F
JACKSONVILLE   SUNNY     79  71  77 E7        30.01F
SEARCY         MOSUNNY   75  68  78 S6        30.03F
HOT SPRINGS    MOSUNNY   85  74  69 S8        29.99F HX  92
RUSSELLVILLE   PTSUNNY   76  68  76 E5        29.98F
CLINTON        CLOUDY    77  70  78 SE5       30.01F
$$

ARZ036-252200-
EAST ARKANSAS

CITY           SKY/WX    TMP DP  RH WIND       PRES   REMARKS
WEST MEMPHIS   TSTM      68  65  90 SW8       30.05F
$$

ARZ050-053-066-070-073-252200-
SOUTHWEST ARKANSAS

CITY           SKY/WX    TMP DP  RH WIND       PRES   REMARKS
ARKADELPHIA    FAIR      89  81  77 S12       29.99F HX 107
CAMDEN         CLOUDY    90  72  55 S6        30.02F HX  96
TEXARKANA      PTSUNNY   87  73  62 S8        30.00F HX  94
EL DORADO      PTSUNNY   88  74  63 S6        30.02F HX  96
DE QUEEN       MOSUNNY   89  74  60 VRB7      29.95F HX  98
$$

ARZ056-057-069-252200-
SOUTHEAST ARKANSAS

CITY           SKY/WX    TMP DP  RH WIND       PRES   REMARKS
PINE BLUFF     CLOUDY    82  72  71 S9        30.02F HX  87
STUTTGART      CLOUDY    77  66  69 E8        30.03F
MONTICELLO     CLOUDY    86  73  65 SE7       30.04F HX  93

$$






USA.gov is the U.S. government's official web portal to all federal, state and local government web resources and services.